MUOS-4

Last updated on Mon Sep 07 2026 00:02:59 GMT+0000 (Coordinated Universal Time)

1 40887U 15044A 26249.66423252 -.00000107 00000+0 00000+0 0 9991 2 40887 4.4818 42.6071 0053188 3.7490 253.5069 1.00271342 40376
UTC large
Height (km)
Speed (km/s)
/
Latitude / Longitude
Inclination (degrees)
Orbital Period (minutes)
Azimuth
Elevation
Range (km)
Doppler Factor

Next 0 passes for location: London (51.5072 / 0.1276)

No passes found over London.
MUOS-4